Location: Central Falls
(41.8900°N, 71.3929°W)
Time: 07:46:34
(UTC+00:00)

Tiros 1 despin weight - Pass Details

Date: 09 December 2023
Orbit: 581 x 624 km, 48.2° (Epoch: 29 February)

Event Time Altitude Azimuth Distance (km) Brightness Sun altitude
Rises 00:35:32 0° 289° (WNW) 2,801 ? -36.6°
Reaches altitude 10° 00:37:57 10° 298° (WNW) 1,898 ? -37.1°
Enters shadow 00:38:07 11° 299° (WNW) 1,841 ? -37.1°
Maximum altitude 00:41:58 36° 6° (N) 925 - -37.8°
Drops below altitude 10° 00:46:00 10° 74° (ENE) 1,897 - -38.6°
Sets 00:48:25 0° 83° (E) 2,799 - -39.0°
